Weather History for KRSV - January, 2012

Change the Weather History Date:

Saturday, January 14, 2012

  Actual Average (KLWV) Record (KLWV)
Temperature  
Mean Temperature 18 °F 31 °F  
Max Temperature 30 °F 39 °F 53 °F (2007)
Min Temperature 7 °F 23 °F -5 °F (1997)
Degree Days  
Heating Degree Days 46 34  
Month to date heating degree days 476  
Since 1 July heating degree days 2275  
Cooling Degree Days 0 0  
Month to date cooling degree days 0  
Year to date cooling degree days 0  
Moisture  
Dew Point 14 °F    
Average Humidity 78    
Maximum Humidity 88    
Minimum Humidity 59    
Precipitation  
Precipitation 0.00 in 0.09 in 0.74 in (1976)
Month to date precipitation 1.27  
Year to date precipitation 1.27  
Sea Level Pressure  
Sea Level Pressure 30.15 in    
Wind  
Wind Speed 5 mph (ENE)    
Max Wind Speed 9 mph    
Max Gust Speed -    
Visibility 10 miles    
Events Snow    
T = Trace of Precipitation, MM = Missing Value Source: NWS Daily Summary

Daily Weather History Graph

Daily Weather History Graph

Search for Another Location

Airport or City:

Trip Planner

Search our weather history database for the weather conditions in past years. The results will help you decide how hot, cold, wet, or windy it might be!

Date:

Astronomy

Jan. 14, 2012 Rise Set
Actual Time 7:08 AM CST 4:50 PM CST
Civil Twilight 6:39 AM CST 5:20 PM CST
Nautical Twilight 6:06 AM CST 5:53 PM CST
Astronomical Twilight 5:34 AM CST 6:25 PM CST
Moon 11:07 PM CST (1/14) 9:56 AM CST (1/14)
Length of Visible Light 10h 41m
Length of Day
9h 42m
Waning Gibbous, 68% of the Moon is Illuminated
Jan 14
Waning Gibbous
Jan 16
Last Quarter
Jan 23
New
Jan 30
First Quarter
Feb 7
Full

Hourly Weather History & Observations

Time (CST) Temp. Windchill Dew Point Humidity Pressure Visibility Wind Dir Wind Speed Gust Speed Precip Events Conditions
12:15 AM 11.3 °F 1.9 °F 7.3 °F 84% 30.17 in 10.0 mi SW 5.8 mph - N/A   Clear
12:35 AM 11.5 °F 3.5 °F 7.0 °F 82% 30.16 in 10.0 mi SSW 4.6 mph - N/A   Clear
12:55 AM 11.3 °F 1.9 °F 7.2 °F 83% 30.17 in 10.0 mi SW 5.8 mph - N/A   Clear
1:15 AM 11.8 °F 2.5 °F 7.0 °F 81% 30.17 in 10.0 mi SW 5.8 mph - N/A   Clear
1:35 AM 10.2 °F 0.6 °F 5.5 °F 81% 30.16 in 10.0 mi SW 5.8 mph - N/A   Clear
1:55 AM 9.1 °F 2.6 °F 5.4 °F 85% 30.16 in 10.0 mi SSW 3.5 mph - N/A   Clear
2:15 AM 9.3 °F 2.8 °F 5.5 °F 85% 30.16 in 10.0 mi SSW 3.5 mph - N/A   Clear
2:35 AM 8.2 °F -1.8 °F 4.5 °F 85% 30.16 in 10.0 mi SSW 5.8 mph - N/A   Clear
2:55 AM 9.5 °F -0.3 °F 5.5 °F 84% 30.16 in 10.0 mi SSW 5.8 mph - N/A   Clear
3:15 AM 10.4 °F 4.0 °F 6.6 °F 85% 30.15 in 10.0 mi SSW 3.5 mph - N/A   Clear
3:35 AM 9.7 °F - 6.6 °F 87% 30.14 in 10.0 mi Calm Calm - N/A   Clear
3:55 AM 8.6 °F - 5.2 °F 86% 30.14 in 10.0 mi Calm Calm - N/A   Clear
4:15 AM 8.1 °F - 4.8 °F 87% 30.14 in 10.0 mi Calm Calm - N/A   Clear
4:35 AM 8.6 °F - 5.5 °F 87% 30.14 in 10.0 mi Calm Calm - N/A   Clear
4:55 AM 8.6 °F - 5.4 °F 87% 30.15 in 10.0 mi Calm Calm - N/A   Clear
5:15 AM 7.0 °F 0.1 °F 3.6 °F 86% 30.16 in 10.0 mi South 3.5 mph - N/A   Clear
5:35 AM 7.2 °F -1.5 °F 3.9 °F 87% 30.16 in 10.0 mi SSE 4.6 mph - N/A   Scattered Clouds
5:55 AM 10.0 °F - 7.2 °F 88% 30.16 in 10.0 mi Calm Calm - N/A   Mostly Cloudy
6:15 AM 11.3 °F 5.1 °F 7.9 °F 86% 30.16 in 10.0 mi SSE 3.5 mph - N/A   Mostly Cloudy
6:35 AM 12.6 °F - 9.1 °F 86% 30.16 in 7.0 mi Calm Calm - N/A   Mostly Cloudy
6:55 AM 15.3 °F 7.9 °F 12.2 °F 88% 30.16 in 7.0 mi SSE 4.6 mph - N/A   Overcast
7:35 AM 17.4 °F 10.4 °F 13.8 °F 86% 30.16 in 7.0 mi SSE 4.6 mph - N/A   Overcast
7:55 AM 17.8 °F 12.5 °F 13.8 °F 84% 30.15 in 7.0 mi SE 3.5 mph - N/A   Overcast
8:15 AM 18.9 °F 12.1 °F 14.4 °F 83% 30.14 in 7.0 mi ESE 4.6 mph - N/A   Mostly Cloudy
8:35 AM 19.9 °F 12.1 °F 14.0 °F 78% 30.14 in 10.0 mi ESE 5.8 mph - N/A   Mostly Cloudy
8:55 AM 20.3 °F 13.8 °F 14.9 °F 80% 30.14 in 10.0 mi ESE 4.6 mph - N/A   Mostly Cloudy
9:15 AM 21.9 °F 15.7 °F 16.2 °F 78% 30.15 in 10.0 mi SE 4.6 mph - N/A   Overcast
9:35 AM 22.8 °F 15.5 °F 16.3 °F 76% 30.15 in 10.0 mi SE 5.8 mph - N/A   Overcast
9:55 AM 23.0 °F 17.0 °F 16.5 °F 76% 30.15 in 3.0 mi ESE 4.6 mph - N/A Snow Light Snow
10:15 AM 23.9 °F 18.0 °F 18.0 °F 78% 30.14 in 5.0 mi East 4.6 mph - N/A   Haze
11:15 AM 28.4 °F 23.3 °F 18.7 °F 67% 30.11 in 10.0 mi ENE 4.6 mph - N/A   Scattered Clouds
11:35 AM 29.3 °F 23.2 °F 18.0 °F 63% 30.10 in 10.0 mi ENE 5.8 mph - N/A   Mostly Cloudy
11:55 AM 29.3 °F 21.5 °F 18.1 °F 63% 30.09 in 10.0 mi ENE 8.1 mph - N/A   Overcast
12:15 PM 28.4 °F 21.2 °F 17.8 °F 64% 30.09 in 10.0 mi ENE 6.9 mph - N/A   Overcast
12:35 PM 29.3 °F 23.2 °F 17.1 °F 60% 30.08 in 10.0 mi East 5.8 mph - N/A   Overcast
12:55 PM 29.7 °F 23.7 °F 16.7 °F 59% 30.08 in 7.0 mi ENE 5.8 mph - N/A Snow Light Snow
1:15 PM 29.3 °F 22.3 °F 18.0 °F 63% 30.07 in 10.0 mi NE 6.9 mph - N/A   Overcast
1:35 PM 29.1 °F 20.6 °F 18.3 °F 64% 30.07 in 10.0 mi NNE 9.2 mph - N/A   Overcast
1:55 PM 29.3 °F 21.5 °F 18.0 °F 63% 30.08 in 10.0 mi NE 8.1 mph - N/A   Overcast
2:15 PM 30.0 °F 25.2 °F 18.5 °F 62% 30.09 in 10.0 mi NNE 4.6 mph - N/A   Overcast
2:35 PM 29.3 °F 22.3 °F 18.9 °F 65% 30.09 in 10.0 mi NNE 6.9 mph - N/A   Mostly Cloudy
3:15 PM 29.3 °F 21.5 °F 19.6 °F 67% 30.11 in 10.0 mi North 8.1 mph - N/A   Mostly Cloudy
3:35 PM 29.3 °F 21.5 °F 19.2 °F 66% 30.12 in 10.0 mi North 8.1 mph - N/A   Clear
3:55 PM 28.4 °F 21.2 °F 20.8 °F 73% 30.13 in 10.0 mi NNW 6.9 mph - N/A   Scattered Clouds
4:15 PM 27.5 °F 20.2 °F 21.0 °F 77% 30.15 in 10.0 mi NNW 6.9 mph - N/A   Mostly Cloudy
4:35 PM 27.5 °F 21.1 °F 20.8 °F 76% 30.15 in 10.0 mi North 5.8 mph - N/A   Overcast
4:55 PM 26.8 °F 21.4 °F 20.5 °F 77% 30.18 in 10.0 mi North 4.6 mph - N/A   Overcast
5:15 PM 26.6 °F 21.2 °F 21.0 °F 79% 30.19 in 10.0 mi North 4.6 mph - N/A   Overcast
5:35 PM 26.6 °F 21.2 °F 21.0 °F 79% 30.19 in 10.0 mi NNW 4.6 mph - N/A   Overcast
5:55 PM 26.6 °F 21.2 °F 20.5 °F 78% 30.21 in 10.0 mi NNW 4.6 mph - N/A   Overcast
6:15 PM 26.4 °F 20.9 °F 20.8 °F 79% 30.21 in 10.0 mi NNW 4.6 mph - N/A   Overcast
6:35 PM 26.4 °F 20.9 °F 20.3 °F 78% 30.22 in 10.0 mi North 4.6 mph - N/A   Overcast
6:55 PM 26.4 °F 22.4 °F 20.5 °F 78% 30.23 in 10.0 mi NW 3.5 mph - N/A   Overcast
7:35 PM 26.6 °F - 21.2 °F 80% 30.25 in 10.0 mi Calm Calm - N/A   Overcast
7:55 PM 26.6 °F 22.6 °F 21.2 °F 80% 30.26 in 10.0 mi WNW 3.5 mph - N/A   Overcast
8:15 PM 26.6 °F 22.6 °F 21.4 °F 81% 30.27 in 10.0 mi WNW 3.5 mph - N/A   Overcast
8:55 PM 24.1 °F 17.0 °F 19.4 °F 82% 30.28 in 10.0 mi NW 5.8 mph - N/A   Scattered Clouds
9:15 PM 23.7 °F 15.6 °F 19.4 °F 84% 30.29 in 10.0 mi NW 6.9 mph - N/A   Clear
9:35 PM 22.8 °F 15.5 °F 18.3 °F 83% 30.29 in 10.0 mi NW 5.8 mph - N/A   Scattered Clouds
9:55 PM 23.0 °F 15.8 °F 18.1 °F 82% 30.30 in 10.0 mi NW 5.8 mph - N/A   Mostly Cloudy
10:15 PM 22.1 °F 14.7 °F 17.6 °F 83% 30.31 in 10.0 mi NW 5.8 mph - N/A   Mostly Cloudy
10:35 PM 23.0 °F 15.8 °F 18.3 °F 82% 30.31 in 10.0 mi North 5.8 mph - N/A   Mostly Cloudy
10:55 PM 23.4 °F 14.3 °F 18.3 °F 81% 30.31 in 10.0 mi North 8.1 mph - N/A   Overcast
11:15 PM 23.2 °F 16.0 °F 18.3 °F 82% 30.32 in 10.0 mi North 5.8 mph - N/A   Overcast
11:35 PM 23.0 °F 14.7 °F 18.1 °F 82% 30.33 in 10.0 mi NW 6.9 mph - N/A   Overcast
11:55 PM 23.0 °F 17.0 °F 17.8 °F 80% 30.32 in 10.0 mi NW 4.6 mph - N/A   Overcast